< < Back
Terminal Aerodrome Forecast


Current Version              Previous Versions:   1  2  3  4  5  6  7  8  9  

Terminal Aerodrome Forecast

256
FTUS44 KOHX 311100
TAFCSV
TAF
KCSV 311133Z 3112/0112 00000KT 5SM BR FEW020 BKN250
     FM311400 17004KT P6SM SCT050 BKN200
     FM010700 VRB02KT 2SM BR VCSH BKN200=

Latest METAR

326
SAUS70 KWBC 311300 RRG
MTRCSV
METAR KCSV 311253Z AUTO 05003KT 8SM CLR 17/15 A3015 RMK AO2 SLP196
T01720150


USA.gov is the U.S. government's official web portal to all federal, state and local government web resources and services.